[[{"header":{"parameterUnit":"m.s-1","parameterCategory":1,"la1":30.2991,"la2":30.254,"lo1":-89.0895,"lo2":-89.0444,"dy":0.0017,"dx":0.0017,"nx":28,"ny":28,"refTime":"2025-04-25T21:00:00:Z","depth":0,"parameterNumber":2,"parameterNumberName":"U-component_of_WINDS"},"data":[0,0,0,0,0,0,0,0,0,0,0,0,0,0,0,0,0,0,0,0,0,0,0,0,0,0,0,0,0,0,0,0,0,0,0,0,0,0,0,0,0,0,0,0,0,0,0,0,0,0,0,0,0,0,0,0,0,0,0.5704,0.5705,0,0.5776,0.5776,0.5777,0.5791,0.5791,0.579,0.579,0.586,0.5862,0.5865,0,0,0,0,0,0,0,0,0,0,0,0,0,0.5578,0.558,0.5704,0.5705,0.5706,0.5775,0.5776,0.5777,0.5791,0.5791,0.579,0.5789,0.5859,0.5862,0.5865,0,0,0,0,0,0,0,0,0,0,0,0,0,0.5639,0.5581,0.5704,0.5721,0.5724,0.5775,0.5776,0.5778,0.5792,0.5791,0.579,0.5789,0.5858,0.5862,0.5865,0.5904,0,0,0.5876,0.5878,0,0,0,0,0,0,0,0,0.5636,0.5644,0.5718,0.572,0.5723,0.5774,0.5758,0.582,0.5792,0.5766,0.579,0.5789,0.5832,0.5838,0.5853,0.5907,0.591,0.5877,0.5879,0.588,0.5881,0,0,0,0,0,0,0,0.5631,0.5641,0.5732,0.5719,0.5722,0.5725,0.5733,0.577,0.5802,0.5768,0.5769,0.5777,0.5833,0.5849,0.5854,0.5911,0.5876,0.588,0.5882,0.5883,0.6001,0.6002,0,0,0,0,0,0,0.5624,0.5637,0.573,0.5734,0.5676,0.5728,0.5737,0.5758,0.5802,0.5808,0.5778,0.5778,0.5843,0.585,0.5857,0.5905,0.588,0.5884,0.5886,0.6,0.6001,0.6002,0,0,0,0,0,0,0.5622,0.5633,0.5727,0.5686,0.5698,0.5731,0.5755,0.576,0.5776,0.581,0.5815,0.5789,0.5843,0.5852,0.5892,0.5908,0.5885,0.5888,0.5999,0.6,0.6002,0.6002,0,0,0,0,0,0,0.5618,0.5631,0.5647,0.5686,0.5701,0.5762,0.5756,0.5762,0.5783,0.5783,0.5821,0.5827,0.5843,0.5887,0.5896,0.5912,0.5891,0.5998,0.6,0.6001,0.6,0.6003,0.6005,0,0,0,0,0,0.5613,0.5643,0.5648,0.5659,0.5721,0.5763,0.5771,0.579,0.5784,0.5799,0.5821,0.5826,0.5905,0.5891,0.5901,0.5919,0.5997,0.5999,0.6001,0.5999,0.6002,0.6005,0,0,0,0,0,0,0.5603,0.5649,0.5654,0.5698,0.5727,0.5765,0.5785,0.5792,0.5823,0.5822,0.5843,0.5852,0.5891,0.5909,0.5893,0.5959,0.595,0.5955,0.5945,0.5949,0.5951,0.5946,0.5894,0,0,0,0,0,0.5607,0.5638,0.5675,0.571,0.5725,0.5753,0.5772,0.5784,0.5814,0.5826,0.5851,0.5879,0.591,0.593,0.5961,0.6003,0.6012,0.602,0.6023,0.6024,0.6028,0.6051,0.6056,0.601,0.601,0.601,0,0,0.5613,0.5642,0.566,0.5709,0.5733,0.5764,0.5763,0.5796,0.5819,0.5831,0.5871,0.589,0.5923,0.5964,0.5984,0.5981,0.6043,0.6027,0.6028,0.6031,0.6054,0.6059,0.6062,0.6011,0.6011,0.6011,0,0,0.5641,0.5666,0.5698,0.5722,0.5758,0.5777,0.5784,0.5822,0.5836,0.5877,0.5886,0.5914,0.5967,0.5991,0.6009,0.6047,0.6052,0.6056,0.6068,0.6091,0.6094,0.6098,0.6111,0.6116,0.6059,0.6059,0.6059,0,0.5644,0.5692,0.5713,0.5746,0.5767,0.5781,0.5813,0.5835,0.5879,0.5893,0.5889,0.5957,0.598,0.6028,0.6037,0.6052,0.6061,0.6052,0.6092,0.6096,0.6099,0.6112,0.6117,0.606,0.6059,0.6059,0.6059,0,0.5694,0.5728,0.5749,0.5793,0.5816,0.5849,0.5874,0.5895,0.5906,0.5924,0.5966,0.5994,0.6031,0.6043,0.6053,0.6092,0.6089,0.6088,0.608,0.6104,0.6116,0.6121,0.606,0.606,0.606,0.606,0,0,0.5717,0.5772,0.578,0.58,0.5842,0.5867,0.59,0.5937,0.5955,0.5985,0.6013,0.6059,0.6059,0.608,0.6093,0.6113,0.6141,0.611,0.6111,0.6115,0.6185,0.6185,0.6191,0.6145,0.6146,0.6146,0.6183,0,0.575,0.581,0.583,0.588,0.5911,0.5924,0.5953,0.5981,0.6,0.6028,0.6048,0.608,0.6078,0.6091,0.6111,0.6133,0.6155,0.6131,0.617,0.6171,0.6161,0.6197,0.6197,0.623,0.6188,0.6188,0.6189,0,0.5796,0.5828,0.5881,0.5919,0.5933,0.5959,0.5994,0.6022,0.6054,0.6066,0.609,0.6101,0.6136,0.6126,0.6174,0.6156,0.6174,0.6187,0.6189,0.6193,0.6181,0.6202,0.6241,0.6246,0.6197,0.6196,0.6196,0,0.5807,0.5863,0.5903,0.5919,0.5965,0.5983,0.6002,0.6034,0.6055,0.6086,0.61,0.6134,0.6152,0.6178,0.6198,0.619,0.6244,0.6236,0.6254,0.6254,0.6265,0.6264,0.6307,0.6276,0.6276,0.6276,0.6276,0,0.5841,0.5873,0.5909,0.5933,0.5969,0.5991,0.6026,0.6047,0.6075,0.6102,0.6116,0.6141,0.6166,0.6195,0.6211,0.6248,0.6256,0.6266,0.627,0.6265,0.6264,0.6276,0.6274,0.6277,0.6277,0.6277,0.6277,0,0.586,0.5885,0.5929,0.5969,0.5979,0.6004,0.6038,0.6062,0.6081,0.6116,0.6125,0.6155,0.619,0.6213,0.6256,0.6267,0.6307,0.631,0.6297,0.6299,0.6316,0.6314,0.6368,0.6376,0.634,0.6341,0.6341,0,0.588,0.5905,0.5948,0.5968,0.5988,0.602,0.6043,0.6066,0.6088,0.6127,0.6146,0.6181,0.6211,0.6266,0.6291,0.6324,0.6328,0.6345,0.6333,0.6328,0.6329,0.6327,0.6329,0.6347,0.6347,0.6347,0.6347,0,0.5913,0.5924,0.5956,0.5992,0.6019,0.6048,0.6078,0.6093,0.6121,0.6145,0.6182,0.6205,0.625,0.6286,0.6322,0.6341,0.6349,0.6351,0.6357,0.6352,0.6343,0.6348,0.6302,0.635,0.6349,0.6349,0.6349,0.6349,0.5933,0.5956,0.599,0.6025,0.605,0.6078,0.6102,0.6125,0.6156,0.6195,0.6207,0.6245,0.6276,0.6326,0.6346,0.6375,0.6373,0.6382,0.6384,0.6386,0.6386,0.6339,0.6382,0.6382,0.6382,0.6382,0.6382,0,0.5966,0.5989,0.6021,0.6063,0.6091,0.6097,0.613,0.6152,0.6186,0.6215,0.6245,0.6286,0.6321,0.6349,0.6384,0.6402,0.6407,0.6411,0.6409,0.6414,0.6386,0.6377,0.6406,0.6406,0.6406,0.6406,0.6406,0.6406,0.5987,0.6027,0.6042,0.6094,0.6117,0.6155,0.6173,0.6198,0.6222,0.6269,0.6298,0.6316,0.6345,0.6383,0.6414,0.6422,0.6434,0.6437,0.6445,0.6418,0.6416,0.6413,0.6405,0.644,0.644,0.6471,0.6471,0.6471]},{"header":{"parameterUnit":"m.s-1","parameterCategory":1,"la1":30.2991,"la2":30.254,"lo1":-89.0895,"lo2":-89.0444,"dy":0.0017,"dx":0.0017,"nx":28,"ny":28,"refTime":"2025-04-25T21:00:00:Z","depth":0,"parameterNumber":3,"parameterNumberName":"V-component_of_WINDS"},"data":[0,0,0,0,0,0,0,0,0,0,0,0,0,0,0,0,0,0,0,0,0,0,0,0,0,0,0,0,0,0,0,0,0,0,0,0,0,0,0,0,0,0,0,0,0,0,0,0,0,0,0,0,0,0,0,0,0,0,-0.8147,-0.8147,0,-0.8153,-0.8153,-0.8153,-0.8181,-0.8182,-0.8183,-0.8183,-0.8185,-0.8184,-0.8184,0,0,0,0,0,0,0,0,0,0,0,0,0,-0.8159,-0.8158,-0.8147,-0.8147,-0.8147,-0.8153,-0.8153,-0.8153,-0.8181,-0.8182,-0.8183,-0.8184,-0.8185,-0.8185,-0.8184,0,0,0,0,0,0,0,0,0,0,0,0,0,-0.8158,-0.8158,-0.8147,-0.8162,-0.8164,-0.8153,-0.8153,-0.8153,-0.8181,-0.8182,-0.8183,-0.8184,-0.8185,-0.8185,-0.8184,-0.8157,0,0,-0.8181,-0.8181,0,0,0,0,0,0,0,0,-0.8158,-0.8157,-0.816,-0.8161,-0.8163,-0.8168,-0.8157,-0.8154,-0.8181,-0.8174,-0.8183,-0.8185,-0.8178,-0.8178,-0.8176,-0.8157,-0.8157,-0.8181,-0.818,-0.818,-0.818,0,0,0,0,0,0,0,-0.8158,-0.8157,-0.8149,-0.816,-0.8162,-0.8168,-0.8169,-0.8157,-0.817,-0.8175,-0.8177,-0.8178,-0.8179,-0.8177,-0.8177,-0.8157,-0.8181,-0.818,-0.818,-0.8179,-0.8118,-0.8117,0,0,0,0,0,0,-0.8156,-0.8157,-0.8149,-0.8149,-0.8163,-0.8167,-0.8168,-0.8165,-0.817,-0.8172,-0.8177,-0.8179,-0.8178,-0.8178,-0.8177,-0.8147,-0.818,-0.8179,-0.8179,-0.8119,-0.8118,-0.8116,0,0,0,0,0,0,-0.8156,-0.8155,-0.8149,-0.8154,-0.8154,-0.8166,-0.8162,-0.8164,-0.8163,-0.8172,-0.8174,-0.8173,-0.8179,-0.8178,-0.8162,-0.8148,-0.8179,-0.8178,-0.812,-0.8118,-0.8117,-0.8087,0,0,0,0,0,0,-0.8156,-0.8155,-0.8146,-0.8153,-0.8153,-0.8135,-0.8161,-0.8164,-0.8162,-0.8165,-0.8169,-0.817,-0.818,-0.8164,-0.8162,-0.8147,-0.8177,-0.8122,-0.8119,-0.8117,-0.8089,-0.8084,-0.808,0,0,0,0,0,-0.8157,-0.8136,-0.8145,-0.8144,-0.8142,-0.8134,-0.8134,-0.8147,-0.816,-0.8151,-0.8157,-0.817,-0.8149,-0.8162,-0.816,-0.8144,-0.8122,-0.812,-0.8118,-0.8091,-0.8085,-0.808,0,0,0,0,0,0,-0.8125,-0.8137,-0.8148,-0.8129,-0.813,-0.8139,-0.8127,-0.814,-0.8137,-0.8139,-0.8154,-0.8155,-0.8137,-0.8139,-0.8152,-0.812,-0.8138,-0.8135,-0.8119,-0.8113,-0.8109,-0.8109,-0.8176,0,0,0,0,0,-0.8116,-0.8109,-0.812,-0.8103,-0.8103,-0.8115,-0.8112,-0.8122,-0.8124,-0.8124,-0.8129,-0.8129,-0.8123,-0.8118,-0.8113,-0.809,-0.8091,-0.8078,-0.8074,-0.807,-0.8067,-0.8056,-0.805,-0.8108,-0.8108,-0.8108,0,0,-0.8097,-0.8103,-0.8097,-0.8096,-0.8099,-0.8091,-0.8115,-0.8106,-0.81,-0.8122,-0.8108,-0.8112,-0.8113,-0.8094,-0.8085,-0.8095,-0.8051,-0.8067,-0.8064,-0.8063,-0.8053,-0.8047,-0.8042,-0.8107,-0.8107,-0.8107,0,0,-0.8058,-0.8062,-0.8048,-0.8051,-0.8055,-0.8063,-0.8059,-0.8067,-0.807,-0.8057,-0.8073,-0.8066,-0.8055,-0.8055,-0.8054,-0.8016,-0.8029,-0.8014,-0.7991,-0.7979,-0.7975,-0.7971,-0.7958,-0.7953,-0.8011,-0.8011,-0.8011,0,-0.8033,-0.8024,-0.8039,-0.803,-0.8029,-0.805,-0.8036,-0.8036,-0.8038,-0.8036,-0.8047,-0.8034,-0.8036,-0.8018,-0.8009,-0.8007,-0.8003,-0.8014,-0.7974,-0.7971,-0.7967,-0.7955,-0.795,-0.8009,-0.801,-0.801,-0.801,0,-0.7994,-0.7987,-0.7975,-0.7978,-0.7975,-0.7963,-0.7976,-0.7972,-0.7982,-0.7989,-0.7975,-0.7978,-0.7974,-0.7971,-0.7979,-0.7953,-0.7959,-0.7972,-0.7991,-0.796,-0.7949,-0.7944,-0.8007,-0.8008,-0.8008,-0.8009,0,0,-0.7935,-0.7947,-0.7943,-0.7944,-0.7951,-0.7945,-0.7934,-0.7932,-0.7928,-0.7928,-0.7919,-0.7909,-0.7921,-0.792,-0.7929,-0.7919,-0.789,-0.7933,-0.7934,-0.7926,-0.7862,-0.7853,-0.7847,-0.7898,-0.7898,-0.7897,-0.7862,0,-0.7899,-0.7882,-0.7895,-0.7875,-0.7869,-0.7889,-0.788,-0.7882,-0.7888,-0.7883,-0.7889,-0.7883,-0.7899,-0.7899,-0.789,-0.7896,-0.7878,-0.7898,-0.789,-0.7889,-0.7889,-0.7841,-0.7831,-0.7798,-0.7858,-0.7857,-0.7857,0,-0.7854,-0.7854,-0.7834,-0.7843,-0.784,-0.7832,-0.7831,-0.7826,-0.7829,-0.7834,-0.7833,-0.7845,-0.7834,-0.7853,-0.7838,-0.7852,-0.7849,-0.7851,-0.785,-0.785,-0.7871,-0.784,-0.7788,-0.7783,-0.785,-0.785,-0.7851,0,-0.7814,-0.7809,-0.7796,-0.7797,-0.7806,-0.78,-0.7803,-0.7807,-0.7805,-0.7804,-0.7803,-0.78,-0.7799,-0.7796,-0.7807,-0.7819,-0.779,-0.781,-0.7794,-0.7794,-0.7787,-0.7787,-0.7734,-0.7784,-0.7785,-0.7785,-0.7785,0,-0.7772,-0.7759,-0.7779,-0.7771,-0.7757,-0.7773,-0.7758,-0.7763,-0.7767,-0.776,-0.7777,-0.777,-0.7784,-0.7779,-0.7787,-0.7773,-0.7772,-0.7776,-0.7778,-0.7775,-0.7774,-0.7773,-0.7776,-0.7783,-0.7784,-0.7784,-0.7784,0,-0.7725,-0.7737,-0.7725,-0.7736,-0.7738,-0.7727,-0.7736,-0.7729,-0.7736,-0.7728,-0.7726,-0.7738,-0.7732,-0.7743,-0.7738,-0.7744,-0.7725,-0.7731,-0.7725,-0.7726,-0.771,-0.7712,-0.7654,-0.7648,-0.7702,-0.7702,-0.7701,0,-0.7697,-0.7688,-0.7698,-0.7696,-0.7699,-0.7694,-0.7692,-0.7707,-0.7705,-0.7708,-0.7701,-0.7697,-0.7695,-0.7684,-0.7692,-0.7688,-0.7694,-0.7674,-0.7694,-0.7691,-0.7694,-0.7695,-0.7694,-0.767,-0.767,-0.7669,-0.7669,0,-0.7648,-0.7655,-0.7653,-0.7653,-0.7651,-0.7652,-0.7653,-0.765,-0.7666,-0.7662,-0.7658,-0.7656,-0.7652,-0.7648,-0.7646,-0.7649,-0.7661,-0.7663,-0.7659,-0.7655,-0.7652,-0.7654,-0.7714,-0.7664,-0.7664,-0.7665,-0.7665,-0.7665,-0.761,-0.7603,-0.7609,-0.7607,-0.761,-0.7611,-0.7605,-0.7613,-0.761,-0.7609,-0.7618,-0.7611,-0.7615,-0.7614,-0.7616,-0.761,-0.7619,-0.7613,-0.7612,-0.761,-0.7608,-0.7653,-0.761,-0.761,-0.761,-0.761,-0.761,0,-0.7562,-0.7567,-0.7564,-0.7567,-0.7565,-0.7578,-0.7581,-0.7578,-0.7572,-0.7575,-0.7573,-0.7568,-0.7564,-0.7572,-0.7569,-0.7563,-0.7569,-0.7562,-0.7563,-0.7563,-0.76,-0.7604,-0.7558,-0.7558,-0.7558,-0.7558,-0.7558,-0.7558,-0.7536,-0.7525,-0.7533,-0.7524,-0.7529,-0.7524,-0.7525,-0.7526,-0.7529,-0.7522,-0.752,-0.7526,-0.753,-0.7528,-0.7525,-0.7528,-0.7526,-0.7517,-0.7521,-0.7555,-0.7561,-0.7565,-0.7569,-0.7517,-0.7516,-0.7485,-0.7485,-0.7485]}]]